Flag for Brazil Weather past 2 weeks in Fortaleza, Ceará, Brazil

Now
86 °F

Passing clouds.


Feels Like: 91 °F
Forecast: 79 / 86 °F
Wind: 20 mph from Southeast

Location: Fortaleza Aeropor-To

Current Time: Apr 28, 2015 at 4:10:25 PM

Latest Report: Apr 28, 2015 at 3:00 PM


Visibility: N/A

Pressure: 29.80 "Hg

Humidity: 59%

Dew point: 70 °F

Location of FortalezaLocation

Historic Weather in Fortaleza — Graph

°F

Fortaleza temperature yesterday

Maximum temperature yesterday: 86 °F (at 10:00 AM)
Minimum temperature yesterday: 77 °F (at 4:00 AM)
Average temperature yesterday: 81 °F

Past Weeks' High & Low Weather Summary

 TemperatureHumidityPressure
High88 °F (Apr 15, 3:00 PM)100% (Apr 14, 8:00 AM)29.98 "Hg (Apr 14, 8:00 AM)
Low72 °F (Apr 14, 6:00 AM)52% (Apr 15, 3:00 PM)29.80 "Hg (Apr 15, 3:00 PM)
Average80 °F77%29.88 "Hg
* Reported Apr 13 2:00 PM — Apr 28 2:00 PM, Fortaleza, Weather by CustomWeather, © 2015

Note: Actual official high and low records may vary slightly from our data, if they occured in-between our weather recording intervals... More about our weather records

Advertising

Fortaleza weather history for previous 24 hours

 ConditionsComfort  
Time TempWeatherWind HumidityBarometerVisibility
2:00 PM
Tue, Apr 28
86 °FScattered clouds.17 mph66%29.80 "HgN/A
1:00 PM86 °FScattered clouds.20 mph66%29.83 "HgN/A
12:00 PM81 °FPartly sunny.23 mph70%29.86 "HgN/A
11:00 AM88 °FPartly sunny.23 mph59%29.86 "HgN/A
10:00 AM86 °FPartly sunny.20 mph62%29.89 "HgN/A
9:00 AM82 °FPartly sunny.12 mph70%29.89 "HgN/A
8:00 AM82 °FScattered clouds.13 mph74%29.89 "HgN/A
7:00 AM79 °FScattered clouds.10 mph84%29.86 "HgN/A
6:00 AM77 °FScattered clouds.7 mph83%29.86 "HgN/A
5:00 AM77 °FPassing clouds.6 mph83%29.83 "HgN/A
4:00 AM81 °FPassing clouds.8 mph74%29.83 "HgN/A
3:00 AM81 °FPassing clouds.9 mph74%29.83 "HgN/A
2:00 AM81 °FPassing clouds.14 mph74%29.83 "HgN/A
1:00 AM81 °FPassing clouds.10 mph74%29.86 "HgN/A
12:00 AM81 °FPassing clouds.9 mph74%29.86 "HgN/A
11:00 PM
Mon, Apr 27
81 °FPassing clouds.10 mph74%29.89 "HgN/A
10:00 PM81 °FPassing clouds.9 mph79%29.89 "HgN/A
9:00 PM81 °FPassing clouds.9 mph74%29.89 "HgN/A
8:00 PM81 °FPassing clouds.12 mph79%29.86 "HgN/A
7:00 PM81 °FClear.14 mph74%29.86 "Hg10 mi
6:00 PM82 °FClear.15 mph70%29.83 "Hg10 mi
5:00 PM82 °FScattered clouds.16 mph74%29.83 "HgN/A
4:00 PM84 °FScattered clouds.21 mph66%29.83 "HgN/A
Weather by CustomWeather, © 2015

See weather overviewHow to use our weather pages